Year,Month,Day,Hour,Minute,Value (Times are PST for temperature in C)
2015,06,27,00,00,22.30
2015,06,27,00,01,22.30
2015,06,27,00,02,22.30
2015,06,27,00,03,22.30
2015,06,27,00,04,22.30
2015,06,27,00,05,22.20
2015,06,27,00,06,22.20
2015,06,27,00,07,22.20
2015,06,27,00,08,22.20
2015,06,27,00,09,22.10
2015,06,27,00,10,22.10
2015,06,27,00,11,22.10
2015,06,27,00,12,22.10
2015,06,27,00,13,22.10
2015,06,27,00,14,22.00
2015,06,27,00,15,22.00
2015,06,27,00,16,22.00
2015,06,27,00,17,21.90
2015,06,27,00,18,21.90
2015,06,27,00,19,21.90
2015,06,27,00,20,21.90
2015,06,27,00,21,21.80
2015,06,27,00,22,21.80
2015,06,27,00,23,21.80
2015,06,27,00,24,21.70
2015,06,27,00,25,21.70
2015,06,27,00,26,21.70
2015,06,27,00,27,21.60
2015,06,27,00,28,21.60
2015,06,27,00,29,21.60
2015,06,27,00,30,21.60
2015,06,27,00,31,21.50
2015,06,27,00,32,21.50
2015,06,27,00,33,21.40
2015,06,27,00,34,21.40
2015,06,27,00,35,21.40
2015,06,27,00,36,21.30
2015,06,27,00,37,21.30
2015,06,27,00,38,21.30
2015,06,27,00,39,21.20
2015,06,27,00,40,21.20
2015,06,27,00,41,21.10
2015,06,27,00,42,21.10
2015,06,27,00,43,21.10
2015,06,27,00,44,21.00
2015,06,27,00,45,21.00
2015,06,27,00,46,21.00
2015,06,27,00,47,20.90
2015,06,27,00,48,20.90
2015,06,27,00,49,20.80
2015,06,27,00,50,20.80
2015,06,27,00,51,20.80
2015,06,27,00,52,20.70
2015,06,27,00,53,20.70
2015,06,27,00,54,20.70
2015,06,27,00,55,20.60
2015,06,27,00,56,20.60
2015,06,27,00,57,20.60
2015,06,27,00,58,20.50
2015,06,27,00,59,20.50
2015,06,27,01,00,20.40
2015,06,27,01,01,20.40
2015,06,27,01,02,20.40
2015,06,27,01,03,20.30
2015,06,27,01,04,20.30
2015,06,27,01,05,20.20
2015,06,27,01,06,20.20
2015,06,27,01,07,20.20
2015,06,27,01,08,20.10
2015,06,27,01,09,20.10
2015,06,27,01,10,20.00
2015,06,27,01,11,20.00
2015,06,27,01,12,19.90
2015,06,27,01,13,19.90
2015,06,27,01,14,19.90
2015,06,27,01,15,19.80
2015,06,27,01,16,19.80
2015,06,27,01,17,19.80
2015,06,27,01,18,19.70
2015,06,27,01,19,19.70
2015,06,27,01,20,19.70
2015,06,27,01,21,19.60
2015,06,27,01,22,19.60
2015,06,27,01,23,19.60
2015,06,27,01,24,19.60
2015,06,27,01,25,19.60
2015,06,27,01,26,19.60
2015,06,27,01,27,19.50
2015,06,27,01,28,19.50
2015,06,27,01,29,19.50
2015,06,27,01,30,19.50
2015,06,27,01,31,19.40
2015,06,27,01,32,19.40
2015,06,27,01,33,19.40
2015,06,27,01,34,19.40
2015,06,27,01,35,19.40
2015,06,27,01,36,19.30
2015,06,27,01,37,19.30
2015,06,27,01,38,19.30
2015,06,27,01,39,19.30
2015,06,27,01,40,19.30
2015,06,27,01,41,19.30
2015,06,27,01,42,19.20
2015,06,27,01,43,19.20
2015,06,27,01,44,19.20
2015,06,27,01,45,19.20
2015,06,27,01,46,19.10
2015,06,27,01,47,19.10
2015,06,27,01,48,19.10
2015,06,27,01,49,19.10
2015,06,27,01,50,19.00
2015,06,27,01,51,19.00
2015,06,27,01,52,19.00
2015,06,27,01,53,18.90
2015,06,27,01,54,18.90
2015,06,27,01,55,18.90
2015,06,27,01,56,18.90
2015,06,27,01,57,18.80
2015,06,27,01,58,18.80
2015,06,27,01,59,18.80
2015,06,27,02,00,18.80
2015,06,27,02,01,18.80
2015,06,27,02,02,18.70
2015,06,27,02,03,18.70
2015,06,27,02,04,18.70
2015,06,27,02,05,18.70
2015,06,27,02,06,18.70
2015,06,27,02,07,18.70
2015,06,27,02,08,18.60
2015,06,27,02,09,18.60
2015,06,27,02,10,18.60
2015,06,27,02,11,18.60
2015,06,27,02,12,18.60
2015,06,27,02,13,18.60
2015,06,27,02,14,18.60
2015,06,27,02,15,18.50
2015,06,27,02,16,18.50
2015,06,27,02,17,18.50
2015,06,27,02,18,18.50
2015,06,27,02,19,18.50
2015,06,27,02,20,18.50
2015,06,27,02,21,18.50
2015,06,27,02,22,18.40
2015,06,27,02,23,18.40
2015,06,27,02,24,18.40
2015,06,27,02,25,18.40
2015,06,27,02,26,18.40
2015,06,27,02,27,18.40
2015,06,27,02,28,18.40
2015,06,27,02,29,18.40
2015,06,27,02,30,18.30
2015,06,27,02,31,18.30
2015,06,27,02,32,18.30
2015,06,27,02,33,18.30
2015,06,27,02,34,18.30
2015,06,27,02,35,18.30
2015,06,27,02,36,18.30
2015,06,27,02,37,18.30
2015,06,27,02,38,18.30
2015,06,27,02,39,18.20
2015,06,27,02,40,18.20
2015,06,27,02,41,18.20
2015,06,27,02,42,18.20
2015,06,27,02,43,18.20
2015,06,27,02,44,18.20
2015,06,27,02,45,18.20
2015,06,27,02,46,18.10
2015,06,27,02,47,18.10
2015,06,27,02,48,18.10
2015,06,27,02,49,18.10
2015,06,27,02,50,18.10
2015,06,27,02,51,18.10
2015,06,27,02,52,18.10
2015,06,27,02,53,18.10
2015,06,27,02,54,18.00
2015,06,27,02,55,18.00
2015,06,27,02,56,18.00
2015,06,27,02,57,18.00
2015,06,27,02,58,18.00
2015,06,27,02,59,17.90
2015,06,27,03,00,17.90
2015,06,27,03,01,17.90
2015,06,27,03,02,17.90
2015,06,27,03,03,17.90
2015,06,27,03,04,17.80
2015,06,27,03,05,17.80
2015,06,27,03,06,17.80
2015,06,27,03,07,17.80
2015,06,27,03,08,17.80
2015,06,27,03,09,17.80
2015,06,27,03,10,17.80
2015,06,27,03,11,17.80
2015,06,27,03,12,17.70
2015,06,27,03,13,17.70
2015,06,27,03,14,17.70
2015,06,27,03,15,17.70
2015,06,27,03,16,17.70
2015,06,27,03,17,17.70
2015,06,27,03,18,17.60
2015,06,27,03,19,17.60
2015,06,27,03,20,17.60
2015,06,27,03,21,17.60
2015,06,27,03,22,17.60
2015,06,27,03,23,17.50
2015,06,27,03,24,17.50
2015,06,27,03,25,17.50
2015,06,27,03,26,17.50
2015,06,27,03,27,17.50
2015,06,27,03,28,17.50
2015,06,27,03,29,17.40
2015,06,27,03,30,17.40
2015,06,27,03,31,17.40
2015,06,27,03,32,17.40
2015,06,27,03,33,17.40
2015,06,27,03,34,17.40
2015,06,27,03,35,17.40
2015,06,27,03,36,17.40
2015,06,27,03,37,17.40
2015,06,27,03,38,17.40
2015,06,27,03,39,17.40
2015,06,27,03,40,17.30
2015,06,27,03,41,17.30
2015,06,27,03,42,17.40
2015,06,27,03,43,17.30
2015,06,27,03,44,17.30
2015,06,27,03,45,17.30
2015,06,27,03,46,17.30
2015,06,27,03,47,17.30
2015,06,27,03,48,17.30
2015,06,27,03,49,17.30
2015,06,27,03,50,17.30
2015,06,27,03,51,17.30
2015,06,27,03,52,17.30
2015,06,27,03,53,17.30
2015,06,27,03,54,17.20
2015,06,27,03,55,17.20
2015,06,27,03,56,17.20
2015,06,27,03,57,17.20
2015,06,27,03,58,17.20
2015,06,27,03,59,17.20
2015,06,27,04,00,17.20
2015,06,27,04,01,17.20
2015,06,27,04,02,17.10
2015,06,27,04,03,17.10
2015,06,27,04,04,17.10
2015,06,27,04,05,17.10
2015,06,27,04,06,17.10
2015,06,27,04,07,17.10
2015,06,27,04,08,17.10
2015,06,27,04,09,17.00
2015,06,27,04,10,17.00
2015,06,27,04,11,17.00
2015,06,27,04,12,17.00
2015,06,27,04,13,16.90
2015,06,27,04,14,16.90
2015,06,27,04,15,16.90
2015,06,27,04,16,16.90
2015,06,27,04,17,16.90
2015,06,27,04,18,16.90
2015,06,27,04,19,16.90
2015,06,27,04,20,16.90
2015,06,27,04,21,16.90
2015,06,27,04,22,16.80
2015,06,27,04,23,16.80
2015,06,27,04,24,16.80
2015,06,27,04,25,16.80
2015,06,27,04,26,16.80
2015,06,27,04,27,16.80
2015,06,27,04,28,16.80
2015,06,27,04,29,16.80
2015,06,27,04,30,16.70
2015,06,27,04,31,16.70
2015,06,27,04,32,16.70
2015,06,27,04,33,16.70
2015,06,27,04,34,16.70
2015,06,27,04,35,16.70
2015,06,27,04,36,16.70
2015,06,27,04,37,16.70
2015,06,27,04,38,16.70
2015,06,27,04,39,16.70
2015,06,27,04,40,16.70
2015,06,27,04,41,16.70
2015,06,27,04,42,16.70
2015,06,27,04,43,16.60
2015,06,27,04,44,16.60
2015,06,27,04,45,16.60
2015,06,27,04,46,16.60
2015,06,27,04,47,16.60
2015,06,27,04,48,16.60
2015,06,27,04,49,16.60
2015,06,27,04,50,16.50
2015,06,27,04,51,16.50
2015,06,27,04,52,16.50
2015,06,27,04,53,16.40
2015,06,27,04,54,16.40
2015,06,27,04,55,16.40
2015,06,27,04,56,16.40
2015,06,27,04,57,16.40
2015,06,27,04,58,16.40
2015,06,27,04,59,16.40
2015,06,27,05,00,16.40
2015,06,27,05,01,16.40
2015,06,27,05,02,16.40
2015,06,27,05,03,16.40
2015,06,27,05,04,16.40
2015,06,27,05,05,16.40
2015,06,27,05,06,16.40
2015,06,27,05,07,16.40
2015,06,27,05,08,16.40
2015,06,27,05,09,16.40
2015,06,27,05,10,16.30
2015,06,27,05,11,16.30
2015,06,27,05,12,16.30
2015,06,27,05,13,16.30
2015,06,27,05,14,16.30
2015,06,27,05,15,16.30
2015,06,27,05,16,16.30
2015,06,27,05,17,16.30
2015,06,27,05,18,16.30
2015,06,27,05,19,16.30
2015,06,27,05,20,16.30
2015,06,27,05,21,16.30
2015,06,27,05,22,16.30
2015,06,27,05,23,16.30
2015,06,27,05,24,16.30
2015,06,27,05,25,16.30
2015,06,27,05,26,16.30
2015,06,27,05,27,16.30
2015,06,27,05,28,16.30
2015,06,27,05,29,16.30
2015,06,27,05,30,16.30
2015,06,27,05,31,16.30
2015,06,27,05,32,16.30
2015,06,27,05,33,16.30
2015,06,27,05,34,16.30
2015,06,27,05,35,16.30
2015,06,27,05,36,16.30
2015,06,27,05,37,16.30
2015,06,27,05,38,16.30
2015,06,27,05,39,16.30
2015,06,27,05,40,16.30
2015,06,27,05,41,16.20
2015,06,27,05,42,16.20
2015,06,27,05,43,16.20
2015,06,27,05,44,16.20
2015,06,27,05,45,16.20
2015,06,27,05,46,16.20
2015,06,27,05,47,16.20
2015,06,27,05,48,16.20
2015,06,27,05,49,16.20
2015,06,27,05,50,16.20
2015,06,27,05,51,16.30
2015,06,27,05,52,16.30
2015,06,27,05,53,16.30
2015,06,27,05,54,16.30
2015,06,27,05,55,16.30
2015,06,27,05,56,16.40
2015,06,27,05,57,16.40
2015,06,27,05,58,16.40
2015,06,27,05,59,16.40
2015,06,27,06,00,16.40
2015,06,27,06,01,16.40
2015,06,27,06,02,16.40
2015,06,27,06,03,16.50
2015,06,27,06,04,16.50
2015,06,27,06,05,16.50
2015,06,27,06,06,16.50
2015,06,27,06,07,16.50
2015,06,27,06,08,16.50
2015,06,27,06,09,16.60
2015,06,27,06,10,16.60
2015,06,27,06,11,16.60
2015,06,27,06,12,16.60
2015,06,27,06,13,16.60
2015,06,27,06,14,16.60
2015,06,27,06,15,16.60
2015,06,27,06,16,16.60
2015,06,27,06,17,16.60
2015,06,27,06,18,16.70
2015,06,27,06,19,16.70
2015,06,27,06,20,16.70
2015,06,27,06,21,16.70
2015,06,27,06,22,16.70
2015,06,27,06,23,16.80
2015,06,27,06,24,16.80
2015,06,27,06,25,16.80
2015,06,27,06,26,16.80
2015,06,27,06,27,16.90
2015,06,27,06,28,16.90
2015,06,27,06,29,17.00
2015,06,27,06,30,17.10
2015,06,27,06,31,17.20
2015,06,27,06,32,17.30
2015,06,27,06,33,17.40
2015,06,27,06,34,17.50
2015,06,27,06,35,17.60
2015,06,27,06,36,17.70
2015,06,27,06,37,17.80
2015,06,27,06,38,17.80
2015,06,27,06,39,17.90
2015,06,27,06,40,18.00
2015,06,27,06,41,18.00
2015,06,27,06,42,18.10
2015,06,27,06,43,18.20
2015,06,27,06,44,18.20
2015,06,27,06,45,18.20
2015,06,27,06,46,18.20
2015,06,27,06,47,18.20
2015,06,27,06,48,18.30
2015,06,27,06,49,18.30
2015,06,27,06,50,18.40
2015,06,27,06,51,18.40
2015,06,27,06,52,18.50
2015,06,27,06,53,18.50
2015,06,27,06,54,18.60
2015,06,27,06,55,18.60
2015,06,27,06,56,18.70
2015,06,27,06,57,18.70
2015,06,27,06,58,18.70
2015,06,27,06,59,18.70
2015,06,27,07,00,18.70
2015,06,27,07,01,18.70
2015,06,27,07,02,18.70
2015,06,27,07,03,18.70
2015,06,27,07,04,18.70
2015,06,27,07,05,18.70
2015,06,27,07,06,18.80
2015,06,27,07,07,18.80
2015,06,27,07,08,18.80
2015,06,27,07,09,18.80
2015,06,27,07,10,18.80
2015,06,27,07,11,18.80
2015,06,27,07,12,18.80
2015,06,27,07,13,18.80
2015,06,27,07,14,18.80
2015,06,27,07,15,18.80
2015,06,27,07,16,18.80
2015,06,27,07,17,18.80
2015,06,27,07,18,18.90
2015,06,27,07,19,18.90
2015,06,27,07,20,18.90
2015,06,27,07,21,18.90
2015,06,27,07,22,19.00
2015,06,27,07,23,19.00
2015,06,27,07,24,19.00
2015,06,27,07,25,19.00
2015,06,27,07,26,19.00
2015,06,27,07,27,19.00
2015,06,27,07,28,19.00
2015,06,27,07,29,19.10
2015,06,27,07,30,19.10
2015,06,27,07,31,19.20
2015,06,27,07,32,19.20
2015,06,27,07,33,19.30
2015,06,27,07,34,19.40
2015,06,27,07,35,19.40
2015,06,27,07,36,19.50
2015,06,27,07,37,19.50
2015,06,27,07,38,19.50
2015,06,27,07,39,19.50
2015,06,27,07,40,19.50
2015,06,27,07,41,19.40
2015,06,27,07,42,19.40
2015,06,27,07,43,19.40
2015,06,27,07,44,19.50
2015,06,27,07,45,19.50
2015,06,27,07,46,19.50
2015,06,27,07,47,19.50
2015,06,27,07,48,19.50
2015,06,27,07,49,19.60
2015,06,27,07,50,19.60
2015,06,27,07,51,19.60
2015,06,27,07,52,19.60
2015,06,27,07,53,19.60
2015,06,27,07,54,19.60
2015,06,27,07,55,19.60
2015,06,27,07,56,19.60
2015,06,27,07,57,19.70
2015,06,27,07,58,19.70
2015,06,27,07,59,19.80
2015,06,27,08,00,19.80
2015,06,27,08,01,19.80
2015,06,27,08,02,19.80
2015,06,27,08,03,19.70
2015,06,27,08,04,19.70
2015,06,27,08,05,19.70
2015,06,27,08,06,19.70
2015,06,27,08,07,19.70
2015,06,27,08,08,19.70
2015,06,27,08,09,19.70
2015,06,27,08,10,19.80
2015,06,27,08,11,19.90
2015,06,27,08,12,20.00
2015,06,27,08,13,20.10
2015,06,27,08,14,20.20
2015,06,27,08,15,20.30
2015,06,27,08,16,20.40
2015,06,27,08,17,20.40
2015,06,27,08,18,20.40
2015,06,27,08,19,20.50
2015,06,27,08,20,20.50
2015,06,27,08,21,20.50
2015,06,27,08,22,20.50
2015,06,27,08,23,20.60
2015,06,27,08,24,20.60
2015,06,27,08,25,20.60
2015,06,27,08,26,20.70
2015,06,27,08,27,20.70
2015,06,27,08,28,20.80
2015,06,27,08,29,20.90
2015,06,27,08,30,20.90
2015,06,27,08,31,21.00
2015,06,27,08,32,21.10
2015,06,27,08,33,21.10
2015,06,27,08,34,21.20
2015,06,27,08,35,21.30
2015,06,27,08,36,21.40
2015,06,27,08,37,21.40
2015,06,27,08,38,21.50
2015,06,27,08,39,21.50
2015,06,27,08,40,21.50
2015,06,27,08,41,21.50
2015,06,27,08,42,21.50
2015,06,27,08,43,21.40
2015,06,27,08,44,21.30
2015,06,27,08,45,21.20
2015,06,27,08,46,21.30
2015,06,27,08,47,21.30
2015,06,27,08,48,21.40
2015,06,27,08,49,21.50
2015,06,27,08,50,21.50
2015,06,27,08,51,21.50
2015,06,27,08,52,21.40
2015,06,27,08,53,21.40
2015,06,27,08,54,21.40
2015,06,27,08,55,21.40
2015,06,27,08,56,21.40
2015,06,27,08,57,21.40
2015,06,27,08,58,21.50
2015,06,27,08,59,21.60
2015,06,27,09,00,21.60
2015,06,27,09,01,21.80
2015,06,27,09,02,21.90
2015,06,27,09,03,22.00
2015,06,27,09,04,22.10
2015,06,27,09,05,22.10
2015,06,27,09,06,22.10
2015,06,27,09,07,22.20
2015,06,27,09,08,22.30
2015,06,27,09,09,22.40
2015,06,27,09,10,22.50
2015,06,27,09,11,22.60
2015,06,27,09,12,22.60
2015,06,27,09,13,22.60
2015,06,27,09,14,22.70
2015,06,27,09,15,22.70
2015,06,27,09,16,22.60
2015,06,27,09,17,22.60
2015,06,27,09,18,22.70
2015,06,27,09,19,22.70
2015,06,27,09,20,22.70
2015,06,27,09,21,22.70
2015,06,27,09,22,22.70
2015,06,27,09,23,22.70
2015,06,27,09,24,22.70
2015,06,27,09,25,22.70
2015,06,27,09,26,22.80
2015,06,27,09,27,22.90
2015,06,27,09,28,23.00
2015,06,27,09,29,23.10
2015,06,27,09,30,23.20
2015,06,27,09,31,23.30
2015,06,27,09,32,23.30
2015,06,27,09,33,23.30
2015,06,27,09,34,23.30
2015,06,27,09,35,23.30
2015,06,27,09,36,23.30
2015,06,27,09,37,23.40
2015,06,27,09,38,23.50
2015,06,27,09,39,23.50
2015,06,27,09,40,23.60
2015,06,27,09,41,23.70
2015,06,27,09,42,23.80
2015,06,27,09,43,23.90
2015,06,27,09,44,23.90
2015,06,27,09,45,24.00
2015,06,27,09,46,24.10
2015,06,27,09,47,24.10
2015,06,27,09,48,24.20
2015,06,27,09,49,24.30
2015,06,27,09,50,24.30
2015,06,27,09,51,24.30
2015,06,27,09,52,24.40
2015,06,27,09,53,24.40
2015,06,27,09,54,24.50
2015,06,27,09,55,24.50
2015,06,27,09,56,24.60
2015,06,27,09,57,24.60
2015,06,27,09,58,24.70
2015,06,27,09,59,24.80
2015,06,27,10,00,24.80
2015,06,27,10,01,24.90
2015,06,27,10,02,25.00
2015,06,27,10,03,25.00
2015,06,27,10,04,25.10
2015,06,27,10,05,25.20
2015,06,27,10,06,25.20
2015,06,27,10,07,25.30
2015,06,27,10,08,25.30
2015,06,27,10,09,25.30
2015,06,27,10,10,25.30
2015,06,27,10,11,25.30
2015,06,27,10,12,25.40
2015,06,27,10,13,25.40
2015,06,27,10,14,25.40
2015,06,27,10,15,25.30
2015,06,27,10,16,25.30
2015,06,27,10,17,25.20
2015,06,27,10,18,25.10
2015,06,27,10,19,25.00
2015,06,27,10,20,25.00
2015,06,27,10,21,25.10
2015,06,27,10,22,25.10
2015,06,27,10,23,25.10
2015,06,27,10,24,25.10
2015,06,27,10,25,25.20
2015,06,27,10,26,25.20
2015,06,27,10,27,25.20
2015,06,27,10,28,25.30
2015,06,27,10,29,25.50
2015,06,27,10,30,25.60
2015,06,27,10,31,25.70
2015,06,27,10,32,25.70
2015,06,27,10,33,25.70
2015,06,27,10,34,25.90
2015,06,27,10,35,26.00
2015,06,27,10,36,26.20
2015,06,27,10,37,26.30
2015,06,27,10,38,26.40
2015,06,27,10,39,26.30
2015,06,27,10,40,26.00
2015,06,27,10,41,25.70
2015,06,27,10,42,25.30
2015,06,27,10,43,24.90
2015,06,27,10,44,24.60
2015,06,27,10,45,24.30
2015,06,27,10,46,24.20
2015,06,27,10,47,24.10
2015,06,27,10,48,24.00
2015,06,27,10,49,23.80
2015,06,27,10,50,23.70
2015,06,27,10,51,23.60
2015,06,27,10,52,23.50
2015,06,27,10,53,23.40
2015,06,27,10,54,23.30
2015,06,27,10,55,23.40
2015,06,27,10,56,23.50
2015,06,27,10,57,23.60
2015,06,27,10,58,23.80
2015,06,27,10,59,23.90
2015,06,27,11,00,24.10
2015,06,27,11,01,24.20
2015,06,27,11,02,24.40
2015,06,27,11,03,24.50
2015,06,27,11,04,24.70
2015,06,27,11,05,24.80
2015,06,27,11,06,24.80
2015,06,27,11,07,24.90
2015,06,27,11,08,25.00
2015,06,27,11,09,25.10
2015,06,27,11,10,25.20
2015,06,27,11,11,25.20
2015,06,27,11,12,25.30
2015,06,27,11,13,25.40
2015,06,27,11,14,25.40
2015,06,27,11,15,25.50
2015,06,27,11,16,25.60
2015,06,27,11,17,25.60
2015,06,27,11,18,25.70
2015,06,27,11,19,25.80
2015,06,27,11,20,25.80
2015,06,27,11,21,25.90
2015,06,27,11,22,26.00
2015,06,27,11,23,26.10
2015,06,27,11,24,26.20
2015,06,27,11,25,26.30
2015,06,27,11,26,26.50
2015,06,27,11,27,26.60
2015,06,27,11,28,26.70
2015,06,27,11,29,26.60
2015,06,27,11,30,26.50
2015,06,27,11,31,26.40
2015,06,27,11,32,26.40
2015,06,27,11,33,26.30
2015,06,27,11,34,26.20
2015,06,27,11,35,26.20
2015,06,27,11,36,26.10
2015,06,27,11,37,26.00
2015,06,27,11,38,26.00
2015,06,27,11,39,26.00
2015,06,27,11,40,26.00
2015,06,27,11,41,26.00
2015,06,27,11,42,26.00
2015,06,27,11,43,26.00
2015,06,27,11,44,25.90
2015,06,27,11,45,25.90
2015,06,27,11,46,25.80
2015,06,27,11,47,25.80
2015,06,27,11,48,25.80
2015,06,27,11,49,25.90
2015,06,27,11,50,25.90
2015,06,27,11,51,26.00
2015,06,27,11,52,26.20
2015,06,27,11,53,26.20
2015,06,27,11,54,26.40
2015,06,27,11,55,26.50
2015,06,27,11,56,26.60
2015,06,27,11,57,26.60
2015,06,27,11,58,26.70
2015,06,27,11,59,26.70
2015,06,27,12,00,26.70
2015,06,27,12,01,26.70
2015,06,27,12,02,26.70
2015,06,27,12,03,26.70
2015,06,27,12,04,26.70
2015,06,27,12,05,26.80
2015,06,27,12,06,26.80
2015,06,27,12,07,26.90
2015,06,27,12,08,27.10
2015,06,27,12,09,27.30
2015,06,27,12,10,27.50
2015,06,27,12,11,27.80
2015,06,27,12,12,28.00
2015,06,27,12,13,28.20
2015,06,27,12,14,28.40
2015,06,27,12,15,28.60
2015,06,27,12,16,28.80
2015,06,27,12,17,28.90
2015,06,27,12,18,29.00
2015,06,27,12,19,29.00
2015,06,27,12,20,29.00
2015,06,27,12,21,28.80
2015,06,27,12,22,28.70
2015,06,27,12,23,28.60
2015,06,27,12,24,28.40
2015,06,27,12,25,28.40
2015,06,27,12,26,28.30
2015,06,27,12,27,28.20
2015,06,27,12,28,28.20
2015,06,27,12,29,28.20
2015,06,27,12,30,28.20
2015,06,27,12,31,28.30
2015,06,27,12,32,28.30
2015,06,27,12,33,28.30
2015,06,27,12,34,28.30
2015,06,27,12,35,28.30
2015,06,27,12,36,28.30
2015,06,27,12,37,28.20
2015,06,27,12,38,28.10
2015,06,27,12,39,27.90
2015,06,27,12,40,27.80
2015,06,27,12,41,27.80
2015,06,27,12,42,27.70
2015,06,27,12,43,27.70
2015,06,27,12,44,27.70
2015,06,27,12,45,27.60
2015,06,27,12,46,27.70
2015,06,27,12,47,27.60
2015,06,27,12,48,27.50
2015,06,27,12,49,27.50
2015,06,27,12,50,27.40
2015,06,27,12,51,27.40
2015,06,27,12,52,27.30
2015,06,27,12,53,27.20
2015,06,27,12,54,27.20
2015,06,27,12,55,27.10
2015,06,27,12,56,27.10
2015,06,27,12,57,27.20
2015,06,27,12,58,27.20
2015,06,27,12,59,27.30
2015,06,27,13,00,27.30
2015,06,27,13,01,27.40
2015,06,27,13,02,27.40
2015,06,27,13,03,27.40
2015,06,27,13,04,27.40
2015,06,27,13,05,27.40
2015,06,27,13,06,27.30
2015,06,27,13,07,27.30
2015,06,27,13,08,27.30
2015,06,27,13,09,27.30
2015,06,27,13,10,27.30
2015,06,27,13,11,27.30
2015,06,27,13,12,27.30
2015,06,27,13,13,27.40
2015,06,27,13,14,27.50
2015,06,27,13,15,27.60
2015,06,27,13,16,27.60
2015,06,27,13,17,27.60
2015,06,27,13,18,27.60
2015,06,27,13,19,27.70
2015,06,27,13,20,27.80
2015,06,27,13,21,27.80
2015,06,27,13,22,27.80
2015,06,27,13,23,27.80
2015,06,27,13,24,27.70
2015,06,27,13,25,27.70
2015,06,27,13,26,27.70
2015,06,27,13,27,27.70
2015,06,27,13,28,27.60
2015,06,27,13,29,27.50
2015,06,27,13,30,27.50
2015,06,27,13,31,27.40
2015,06,27,13,32,27.30
2015,06,27,13,33,27.30
2015,06,27,13,34,27.20
2015,06,27,13,35,27.30
2015,06,27,13,36,27.30
2015,06,27,13,37,27.30
2015,06,27,13,38,27.30
2015,06,27,13,39,27.30
2015,06,27,13,40,27.40
2015,06,27,13,41,27.40
2015,06,27,13,42,27.50
2015,06,27,13,43,27.60
2015,06,27,13,44,27.50
2015,06,27,13,45,27.50
2015,06,27,13,46,27.40
2015,06,27,13,47,27.40
2015,06,27,13,48,27.40
2015,06,27,13,49,27.40
2015,06,27,13,50,27.40
2015,06,27,13,51,27.30
2015,06,27,13,52,27.30
2015,06,27,13,53,27.30
2015,06,27,13,54,27.30
2015,06,27,13,55,27.30
2015,06,27,13,56,27.30
2015,06,27,13,57,27.30
2015,06,27,13,58,27.30
2015,06,27,13,59,27.30
2015,06,27,14,00,27.30
2015,06,27,14,01,27.40
2015,06,27,14,02,27.50
2015,06,27,14,03,27.60
2015,06,27,14,04,27.60
2015,06,27,14,05,27.70
2015,06,27,14,06,27.70
2015,06,27,14,07,27.80
2015,06,27,14,08,27.80
2015,06,27,14,09,27.70
2015,06,27,14,10,27.70
2015,06,27,14,11,27.60
2015,06,27,14,12,27.60
2015,06,27,14,13,27.60
2015,06,27,14,14,27.60
2015,06,27,14,15,27.50
2015,06,27,14,16,27.50
2015,06,27,14,17,27.50
2015,06,27,14,18,27.50
2015,06,27,14,19,27.40
2015,06,27,14,20,27.30
2015,06,27,14,21,27.40
2015,06,27,14,22,27.40
2015,06,27,14,23,27.50
2015,06,27,14,24,27.60
2015,06,27,14,25,27.60
2015,06,27,14,26,27.70
2015,06,27,14,27,27.70
2015,06,27,14,28,27.70
2015,06,27,14,29,27.80
2015,06,27,14,30,27.80
2015,06,27,14,31,27.80
2015,06,27,14,32,27.70
2015,06,27,14,33,27.70
2015,06,27,14,34,27.70
2015,06,27,14,35,27.60
2015,06,27,14,36,27.70
2015,06,27,14,37,27.70
2015,06,27,14,38,27.70
2015,06,27,14,39,27.70
2015,06,27,14,40,27.70
2015,06,27,14,41,27.80
2015,06,27,14,42,27.80
2015,06,27,14,43,27.90
2015,06,27,14,44,28.00
2015,06,27,14,45,28.10
2015,06,27,14,46,28.20
2015,06,27,14,47,28.30
2015,06,27,14,48,28.40
2015,06,27,14,49,28.40
2015,06,27,14,50,28.50
2015,06,27,14,51,28.50
2015,06,27,14,52,28.50
2015,06,27,14,53,28.40
2015,06,27,14,54,28.40
2015,06,27,14,55,28.40
2015,06,27,14,56,28.50
2015,06,27,14,57,28.60
2015,06,27,14,58,28.60
2015,06,27,14,59,28.60
2015,06,27,15,00,28.70
2015,06,27,15,01,28.80
2015,06,27,15,02,28.90
2015,06,27,15,03,29.00
2015,06,27,15,04,29.10
2015,06,27,15,05,29.30
2015,06,27,15,06,29.50
2015,06,27,15,07,29.70
2015,06,27,15,08,29.80
2015,06,27,15,09,29.80
2015,06,27,15,10,29.70
2015,06,27,15,11,29.60
2015,06,27,15,12,29.50
2015,06,27,15,13,29.50
2015,06,27,15,14,29.40
2015,06,27,15,15,29.40
2015,06,27,15,16,29.50
2015,06,27,15,17,29.60
2015,06,27,15,18,29.60
2015,06,27,15,19,29.70
2015,06,27,15,20,29.70
2015,06,27,15,21,29.70
2015,06,27,15,22,29.70
2015,06,27,15,23,29.60
2015,06,27,15,24,29.50
2015,06,27,15,25,29.50
2015,06,27,15,26,29.40
2015,06,27,15,27,29.40
2015,06,27,15,28,29.40
2015,06,27,15,29,29.40
2015,06,27,15,30,29.50
2015,06,27,15,31,29.60
2015,06,27,15,32,29.60
2015,06,27,15,33,29.60
2015,06,27,15,34,29.70
2015,06,27,15,35,29.70
2015,06,27,15,36,29.80
2015,06,27,15,37,29.90
2015,06,27,15,38,29.90
2015,06,27,15,39,29.90
2015,06,27,15,40,30.00
2015,06,27,15,41,30.00
2015,06,27,15,42,30.00
2015,06,27,15,43,30.00
2015,06,27,15,44,29.90
2015,06,27,15,45,30.00
2015,06,27,15,46,30.00
2015,06,27,15,47,30.10
2015,06,27,15,48,30.10
2015,06,27,15,49,30.10
2015,06,27,15,50,30.20
2015,06,27,15,51,30.20
2015,06,27,15,52,30.20
2015,06,27,15,53,30.20
2015,06,27,15,54,30.20
2015,06,27,15,55,30.20
2015,06,27,15,56,30.10
2015,06,27,15,57,30.10
2015,06,27,15,58,30.10
2015,06,27,15,59,30.10
2015,06,27,16,00,30.20
2015,06,27,16,01,30.20
2015,06,27,16,02,30.30
2015,06,27,16,03,30.20
2015,06,27,16,04,30.20
2015,06,27,16,05,30.20
2015,06,27,16,06,30.20
2015,06,27,16,07,30.30
2015,06,27,16,08,30.30
2015,06,27,16,09,30.40
2015,06,27,16,10,30.50
2015,06,27,16,11,30.60
2015,06,27,16,12,30.70
2015,06,27,16,13,30.80
2015,06,27,16,14,30.90
2015,06,27,16,15,31.00
2015,06,27,16,16,31.10
2015,06,27,16,17,31.20
2015,06,27,16,18,31.20
2015,06,27,16,19,31.30
2015,06,27,16,20,31.30
2015,06,27,16,21,31.30
2015,06,27,16,22,31.30
2015,06,27,16,23,31.20
2015,06,27,16,24,31.10
2015,06,27,16,25,31.10
2015,06,27,16,26,31.10
2015,06,27,16,27,31.00
2015,06,27,16,28,30.90
2015,06,27,16,29,30.90
2015,06,27,16,30,30.90
2015,06,27,16,31,30.90
2015,06,27,16,32,30.80
2015,06,27,16,33,30.80
2015,06,27,16,34,30.70
2015,06,27,16,35,30.70
2015,06,27,16,36,30.60
2015,06,27,16,37,30.60
2015,06,27,16,38,30.60
2015,06,27,16,39,30.60
2015,06,27,16,40,30.60
2015,06,27,16,41,30.60
2015,06,27,16,42,30.70
2015,06,27,16,43,30.80
2015,06,27,16,44,30.80
2015,06,27,16,45,30.80
2015,06,27,16,46,30.80
2015,06,27,16,47,30.90
2015,06,27,16,48,31.10
2015,06,27,16,49,31.20
2015,06,27,16,50,31.30
2015,06,27,16,51,31.40
2015,06,27,16,52,31.50
2015,06,27,16,53,31.50
2015,06,27,16,54,31.60
2015,06,27,16,55,31.60
2015,06,27,16,56,31.60
2015,06,27,16,57,31.60
2015,06,27,16,58,31.60
2015,06,27,16,59,31.60
2015,06,27,17,00,31.60
2015,06,27,17,01,31.60
2015,06,27,17,02,31.60
2015,06,27,17,03,31.60
2015,06,27,17,04,31.60
2015,06,27,17,05,31.60
2015,06,27,17,06,31.50
2015,06,27,17,07,31.50
2015,06,27,17,08,31.50
2015,06,27,17,09,31.60
2015,06,27,17,10,31.60
2015,06,27,17,11,31.70
2015,06,27,17,12,31.70
2015,06,27,17,13,31.70
2015,06,27,17,14,31.70
2015,06,27,17,15,31.70
2015,06,27,17,16,31.70
2015,06,27,17,17,31.70
2015,06,27,17,18,31.70
2015,06,27,17,19,31.70